Wind_Speed
23 22 21 21 19 19 19 17 17 18 17 14 12 9 2 0 2 3 6 5 7 7 1 3 3 2 4 4 5 6 5 6 6 6 7 7 6 6 5 5 5 5 4 2 2 4 2 1 2 2 2 5 6 6 6 7 7 7 5 4 4 3 3 2 2 3 3 5 4 2 1 5 5 2 3 5 5 5 6 5 4 4 3 3 3 1 3
23 21 20 21 20 19 19 18 16 15 14 14 12 6 1 2 3 2 4 3 4 4 2 3 4 3 3 4 6 6 6 6 7 7 7 6 5 5 5 4 4 3 3 3 3 4 1 0 1 1 2 3 3 4 7 9 8 5 5 5 4 4 2 3 1 1 2 3 2 2 2 2 3 2 2 4 6 6 4 3 4 3 4 5 5 3 3
22 22 20 21 21 19 18 18 16 14 13 13 10 3 2 3 2 2 2 2 2 2 1 0 2 4 3 5 7 7 5 5 8 10 10 9 7 6 5 3 2 2 0 1 2 2 1 1 2 1 2 3 2 2 4 10 10 7 8 8 6 5 3 4 4 3 3 3 3 3 3 1 0 1 2 1 5 7 5 3 4 2 3 4 5 4 2
22 22 21 22 21 20 19 18 17 15 12 12 10 3 2 2 1 2 1 1 1 1 1 1 1 2 2 3 4 5 4 4 8 11 10 11 10 8 8 6 2 2 1 0 2 3 2 1 2 1 2 4 2 3 2 5 5 7 13 12 6 3 2 4 7 6 6 5 4 4 2 2 1 2 4 3 1 5 6 5 4 4 4 3 4 5 6
21 21 21 21 21 20 20 18 18 16 12 10 9 4 2 1 2 2 2 1 1 1 1 1 1 1 2 2 2 2 3 4 5 6 6 7 7 5 5 4 2 4 3 1 0 4 3 1 1 1 3 4 3 5 4 5 8 1 10 10 5 4 2 4 6 4 5 5 4 3 3 3 2 1 3 3 1 4 7 5 5 6 6 3 4 7 11
20 21 21 21 20 20 20 19 18 15 12 9 7 2 1 1 1 1 1 0 1 1 2 2 3 3 3 2 2 3 5 6 4 4 5 5 4 2 0 3 1 5 6 3 2 3 3 2 1 1 2 4 4 6 4 4 8 6 3 3 4 5 2 2 5 4 1 1 2 3 5 3 2 3 4 4 3 3 7 5 6 8 7 4 6 11 12
21 21 20 20 20 19 19 19 18 15 12 8 5 2 1 2 2 2 2 1 2 3 3 3 4 5 3 2 2 3 5 7 5 3 3 4 3 1 1 4 5 1 1 3 3 2 1 2 2 2 1 2 2 4 4 3 6 6 4 2 2 4 1 2 5 5 5 5 5 2 7 4 3 4 4 4 3 4 6 4 4 6 6 6 10 11 6
21 20 19 19 19 17 18 19 17 16 14 8 3 1 1 1 2 2 1 2 4 4 4 3 3 3 3 3 3 3 5 6 5 3 3 4 5 3 3 5 6 4 3 4 3 4 4 3 2 2 2 3 1 2 1 2 5 6 3 1 1 4 0 1 5 5 4 5 6 3 7 7 4 5 6 8 6 2 1 3 3 5 6 7 10 7 2
20 19 18 19 18 17 18 18 17 17 15 9 3 2 4 5 6 4 2 2 3 2 2 3 3 2 2 3 2 3 4 4 6 5 4 5 3 3 4 5 5 3 3 4 0 4 4 4 4 4 2 2 1 1 1 2 2 5 3 1 2 4 2 1 5 4 3 4 5 3 6 8 6 5 7 8 5 2 2 1 3 5 10 11 9 6 2
18 18 18 18 17 17 16 17 17 17 16 11 4 4 8 8 7 5 2 2 3 2 1 1 2 1 1 2 3 4 5 5 5 5 3 3 1 3 5 4 2 2 4 3 3 5 4 4 4 4 3 1 2 2 1 3 3 1 1 2 2 4 5 2 4 4 2 4 4 4 5 6 3 2 2 3 2 2 4 5 3 5 12 11 6 6 7
17 17 17 17 17 17 17 16 17 16 16 14 7 6 9 9 6 4 2 2 2 3 2 1 1 1 3 5 6 6 7 7 5 3 2 3 3 4 5 3 1 1 3 2 4 5 5 4 1 2 4 4 5 4 3 4 5 2 2 2 2 4 6 3 2 4 2 6 5 3 3 1 3 4 3 3 1 1 2 3 3 1 6 7 5 7 11
17 16 16 17 17 18 17 17 17 15 14 15 12 9 11 12 8 4 2 2 2 2 2 2 2 3 5 7 8 7 8 7 6 5 4 4 5 4 3 1 1 1 3 4 5 4 2 1 3 4 5 5 4 5 8 9 8 4 2 3 4 5 6 3 2 4 2 3 3 3 2 4 3 4 3 3 3 2 4 4 5 5 3 8 13 13 13
18 16 15 16 17 18 17 16 16 15 14 16 15 13 15 14 7 2 2 3 2 1 2 4 5 5 7 8 8 8 9 8 7 6 5 4 4 4 3 2 3 3 4 5 4 2 2 3 4 3 4 5 5 6 8 8 8 8 6 3 5 7 6 3 2 3 3 2 3 3 5 4 3 4 2 2 2 1 3 4 5 6 2 7 14 14 13
18 16 15 16 16 17 16 15 15 14 15 16 17 18 18 12 5 3 2 2 3 3 3 4 5 6 7 9 8 7 7 6 4 2 2 4 5 5 4 3 3 3 2 2 3 4 3 2 3 2 3 4 4 4 5 5 6 8 8 6 2 6 5 4 3 1 3 4 2 1 1 3 3 2 2 2 2 1 2 2 2 5 3 6 13 14 13
18 16 15 15 16 16 15 15 14 14 15 16 18 19 17 10 6 6 3 2 4 4 2 1 5 7 8 8 7 5 4 3 3 2 3 4 4 5 4 4 3 1 2 3 3 3 2 2 2 2 1 1 1 1 3 3 3 5 5 5 4 4 4 5 4 1 2 4 2 2 2 2 4 5 4 1 4 3 3 3 1 4 2 6 14 16 15
17 16 15 15 16 15 14 14 14 14 16 17 18 20 16 10 8 8 4 2 3 3 1 3 5 6 6 6 6 5 3 3 3 3 3 3 4 5 4 2 3 2 3 3 3 2 3 2 3 3 2 2 3 1 1 1 2 5 5 5 7 7 4 4 5 3 2 4 3 2 2 4 5 5 2 2 4 3 4 3 2 3 2 5 12 15 15
17 16 16 16 16 15 14 14 14 15 16 17 19 20 15 9 10 9 5 2 2 3 3 3 2 3 3 3 4 3 2 3 3 2 3 3 4 4 2 1 2 2 3 3 2 3 3 2 2 2 1 2 2 2 1 1 2 2 4 5 7 6 4 3 5 4 3 4 2 2 3 3 3 2 3 3 3 4 6 2 5 5 6 7 12 16 14
18 17 17 16 17 17 16 15 15 15 16 17 19 18 12 8 11 10 5 3 3 3 3 2 3 4 3 2 3 3 3 3 3 3 4 3 2 3 2 1 1 2 2 2 2 3 3 1 2 3 1 2 1 2 1 2 3 2 1 2 4 3 3 2 4 4 4 4 2 1 2 3 3 3 5 5 2 4 4 5 5 6 10 8 10 15 14
18 18 17 18 19 19 17 16 16 15 16 18 18 17 12 7 9 11 6 2 2 3 5 6 6 7 5 4 4 3 2 3 3 3 4 3 3 4 2 1 1 1 1 2 2 2 2 1 1 2 2 1 1 1 2 2 2 1 2 3 2 1 1 2 3 4 3 3 2 0 2 3 2 3 3 3 2 1 3 4 3 8 12 10 9 11 11
18 19 19 20 20 19 18 17 16 15 16 16 16 18 14 6 6 11 9 2 2 5 8 8 7 8 5 3 4 4 2 3 3 2 2 3 4 6 4 2 1 1 2 1 0 1 2 1 1 1 2 1 1 2 1 1 1 1 2 2 2 3 2 1 2 3 2 2 2 1 2 3 1 4 2 1 2 4 3 1 3 6 10 10 9 8 8
20 22 22 22 20 18 19 19 16 15 15 14 15 17 14 8 9 14 12 5 2 3 5 6 6 8 9 11 12 11 7 6 6 4 3 4 3 3 2 2 2 1 2 2 2 1 1 3 2 1 2 1 0 2 2 1 1 1 1 2 1 1 2 2 2 2 2 3 2 2 2 3 3 2 3 3 2 3 4 3 4 5 7 8 7 6 6
21 23 23 22 20 19 18 18 18 17 15 14 14 15 14 14 16 18 16 9 5 7 13 17 19 22 26 27 25 23 22 21 19 12 4 2 3 2 2 3 3 2 2 1 1 1 1 2 2 2 2 1 1 2 3 2 1 1 2 2 1 0 2 3 2 1 2 3 2 1 1 3 3 1 2 2 2 2 3 4 4 5 6 7 7 6 6
22 22 22 21 20 19 18 17 17 17 16 15 14 14 16 20 21 19 16 9 7 10 17 20 20 20 20 19 18 17 20 24 26 22 14 6 3 3 3 3 3 1 1 1 2 1 1 2 3 2 2 1 2 3 3 2 2 1 1 2 0 1 2 2 3 3 3 3 3 2 2 3 4 3 2 3 4 3 4 4 4 3 4 5 7 9 9
23 23 23 22 20 20 19 17 17 17 17 16 15 15 18 21 20 16 11 5 3 5 7 7 6 5 7 13 18 15 11 14 19 22 21 14 4 3 3 3 2 2 2 2 1 2 2 2 2 3 2 0 1 3 2 1 1 1 1 1 2 1 2 3 3 3 3 2 3 3 3 3 3 4 4 5 6 5 4 5 4 4 6 7 7 9 11
24 24 24 23 22 21 20 19 17 18 18 17 16 17 19 19 15 10 5 3 2 2 3 4 4 6 11 18 17 12 11 10 10 14 20 21 14 7 4 5 4 1 2 3 1 4 3 2 2 3 2 1 1 1 1 1 2 2 2 0 2 2 2 3 3 3 3 3 3 4 5 4 4 4 4 4 5 6 6 5 6 7 8 8 8 9 10
25 25 24 23 23 22 21 20 18 18 18 18 18 18 19 20 17 11 6 4 2 2 2 4 6 11 18 18 11 12 16 10 4 10 16 20 21 17 10 9 6 2 2 2 3 4 3 3 3 3 2 1 2 2 1 0 1 2 2 0 2 2 2 1 3 4 4 4 4 4 5 5 5 4 4 3 4 7 7 7 7 9 9 8 9 8 8
26 26 24 24 23 23 22 21 19 18 18 18 18 19 21 22 21 15 10 6 2 1 3 2 5 13 18 13 12 19 17 4 6 7 8 11 15 16 12 5 2 2 4 4 3 3 4 3 3 2 1 0 2 3 1 1 3 3 2 2 3 2 1 1 4 4 2 3 4 4 4 3 1 1 3 4 5 8 9 8 8 8 8 9 10 9 7
26 25 25 25 24 23 23 21 19 19 18 18 21 21 19 17 15 13 12 11 5 1 2 3 5 11 13 11 16 21 14 7 10 12 9 6 4 1 1 2 3 3 4 4 3 3 4 3 2 1 0 1 3 3 2 2 3 3 2 3 3 0 1 1 4 3 2 3 5 4 4 3 2 2 4 3 4 8 9 8 8 8 8 9 11 10 8
26 26 27 27 25 24 23 21 19 18 17 19 20 17 9 5 6 5 7 11 9 4 2 3 4 5 6 10 16 17 10 9 13 15 14 14 13 10 7 6 5 3 2 4 4 3 3 2 1 1 2 1 2 2 2 2 3 1 2 4 4 3 4 3 4 3 1 2 5 4 5 5 4 4 4 3 5 8 8 7 7 7 7 9 11 11 10
27 28 28 27 26 25 22 19 18 17 16 16 15 9 2 3 7 4 4 10 10 5 2 2 3 4 4 6 9 10 7 6 8 10 11 9 7 6 5 4 4 3 3 4 3 3 2 2 2 2 4 2 3 2 1 2 1 1 3 5 6 4 3 2 2 3 3 4 4 5 7 7 6 5 5 4 4 7 8 6 6 7 8 9 9 9 11
28 29 30 29 27 25 22 19 16 16 14 11 6 2 1 2 5 4 3 8 9 4 2 2 3 4 5 4 4 6 7 4 4 5 5 5 4 5 6 5 3 3 4 3 2 2 2 2 3 3 4 4 4 3 2 2 2 1 3 5 5 4 3 3 3 5 6 8 9 9 8 8 6 6 5 3 4 8 8 6 7 10 11 11 10 10 12
29 31 31 29 27 24 21 17 15 14 14 11 8 7 6 5 3 2 5 7 7 3 1 2 2 3 3 4 5 6 5 2 3 3 4 4 4 5 6 5 3 2 3 4 2 2 2 2 1 2 4 3 3 3 2 2 2 1 2 4 4 4 4 5 6 6 7 9 10 9 7 4 4 4 4 4 5 8 9 8 10 13 15 14 13 13 14
31 32 31 29 26 22 18 15 15 16 15 13 14 14 11 9 9 8 7 6 4 3 1 1 1 2 3 4 6 6 3 1 2 3 4 3 2 3 4 4 3 3 4 4 2 1 1 2 2 2 3 3 3 4 2 2 1 1 1 2 3 4 5 5 5 5 4 3 4 6 7 5 3 5 6 7 7 9 10 10 12 13 13 12 11 10 12
33 34 31 27 22 18 17 17 16 13 10 9 10 7 7 7 4 13 15 8 2 3 1 1 1 3 3 2 4 4 2 2 1 2 2 3 2 2 2 3 3 4 3 2 2 2 2 2 2 2 2 3 3 3 2 0 1 1 1 2 2 4 6 6 6 5 4 4 5 6 7 8 7 7 7 7 7 10 11 11 10 10 9 8 8 8 9
35 33 28 23 19 16 15 12 8 7 5 5 5 2 5 10 7 8 18 14 2 3 1 0 1 2 3 3 3 4 2 3 1 0 1 2 3 2 2 2 4 3 2 2 2 2 2 2 1 1 2 3 2 2 2 4 4 2 2 2 2 3 4 4 4 4 3 5 7 8 9 9 9 8 7 7 7 8 9 8 8 8 8 7 6 7 7
35 30 22 17 13 9 7 5 5 6 4 3 3 4 8 11 8 4 16 17 7 1 1 1 1 2 2 0 3 4 2 2 1 1 1 1 3 2 3 4 3 1 2 3 3 2 2 1 2 2 3 1 0 2 4 6 6 4 3 2 1 2 3 3 3 4 5 6 9 9 9 9 9 7 7 7 6 7 8 8 7 8 8 7 6 6 6
31 23 14 8 4 2 1 2 5 5 4 7 10 10 7 3 4 5 7 10 7 4 2 1 2 4 3 2 3 3 1 1 2 3 2 1 1 1 2 3 1 1 3 4 2 0 1 2 2 2 1 1 2 4 4 6 6 5 5 4 2 3 4 3 4 6 7 7 8 8 7 7 7 6 7 6 6 7 8 8 6 7 8 7 6 6 7
25 14 6 3 1 1 0 1 3 5 11 13 9 3 1 3 4 2 1 1 3 3 2 1 4 3 1 1 3 2 0 0 1 2 1 1 0 1 2 2 1 1 2 2 2 1 2 3 3 2 1 3 3 4 3 5 5 4 4 5 4 4 5 4 4 7 7 6 6 6 7 7 6 6 6 7 6 6 7 6 6 7 8 6 6 8 10
18 9 5 4 2 1 1 4 8 13 13 8 2 3 1 0 1 0 1 0 1 1 1 2 4 3 3 3 5 4 0 2 3 2 1 1 0 1 0 0 0 2 3 1 2 2 3 2 2 1 2 3 3 3 2 3 4 3 4 5 4 4 5 5 5 6 6 6 6 6 7 8 8 7 6 6 5 5 5 6 8 9 10 10 10 11 10
18 10 4 3 3 6 11 13 14 11 5 0 1 0 0 0 1 1 1 0 1 1 2 2 3 3 4 4 3 3 1 2 2 2 2 1 1 1 1 0 0 2 2 1 1 2 3 0 1 1 2 4 4 3 2 4 4 3 4 4 4 4 4 4 5 5 5 5 5 6 7 8 9 8 7 7 6 6 5 6 8 11 12 13 13 12 11
15 8 4 5 11 18 21 17 10 3 1 1 1 1 1 1 2 1 1 1 2 2 2 1 1 2 2 3 3 2 1 0 2 3 2 0 1 1 2 1 1 2 1 3 2 2 3 1 1 2 4 4 4 4 4 4 3 3 4 4 5 5 4 4 5 7 7 6 5 5 8 9 9 8 10 10 8 7 7 7 9 11 13 14 14 14 13
17 14 14 16 19 18 14 8 3 0 1 1 0 1 1 1 2 1 0 2 2 2 1 2 2 2 2 2 3 2 1 0 1 3 3 1 2 1 2 1 1 2 1 4 1 3 3 1 1 4 5 4 5 5 5 5 4 4 5 4 5 6 5 5 5 6 8 8 5 5 8 9 8 8 12 14 12 11 11 11 11 12 13 15 16 16 16
17 12 10 10 9 6 3 2 1 0 1 1 0 0 1 1 1 1 2 2 1 1 2 2 2 1 2 1 0 1 1 1 1 2 2 1 1 2 3 2 1 0 2 1 2 3 0 2 4 5 4 3 5 6 6 5 5 4 4 4 6 8 8 7 6 6 8 10 9 9 11 11 8 9 15 18 16 13 12 13 14 14 15 16 17 16 17
10 1 2 2 2 1 1 1 0 1 1 0 1 2 1 2 1 1 1 2 2 2 2 1 1 3 3 3 1 1 1 0 1 2 1 0 1 2 2 0 2 2 1 1 2 0 3 4 4 4 3 3 5 5 5 5 5 5 4 4 6 9 8 7 7 7 6 8 10 11 12 12 12 12 14 16 16 15 13 13 15 16 16 15 15 16 17
5 1 1 1 1 1 1 0 1 0 2 2 2 3 3 3 2 2 2 2 2 1 2 1 1 2 3 3 1 1 0 0 1 1 0 1 2 1 1 2 1 1 1 1 1 1 3 4 4 3 5 6 6 6 6 6 5 6 5 5 5 6 7 6 6 5 5 6 9 11 11 12 12 12 12 14 16 16 15 14 15 16 15 14 14 15 17
1 1 1 1 1 1 1 0 1 0 1 2 3 3 3 3 4 4 3 2 1 3 5 3 1 2 4 3 1 0 0 2 1 0 1 2 1 1 2 1 1 2 2 1 2 2 4 5 4 4 6 7 6 6 6 6 5 5 6 6 5 5 6 7 6 5 6 9 11 11 11 12 12 12 12 13 15 15 16 16 16 15 15 14 13 14 16
1 1 1 1 1 1 1 1 2 3 2 2 3 3 3 3 3 3 2 2 2 4 4 3 1 2 3 2 0 1 1 2 2 0 1 2 1 1 2 2 0 1 1 1 3 5 5 5 3 5 6 7 7 7 6 6 6 6 6 6 6 6 6 6 6 6 8 11 11 11 11 13 13 13 13 13 13 15 17 18 17 16 16 16 15 15 16
1 2 1 1 1 1 2 2 2 2 2 2 2 2 2 1 2 3 4 3 2 3 5 4 2 1 2 0 1 1 1 1 1 1 0 2 1 1 3 2 1 2 2 4 5 5 4 4 4 6 7 6 7 7 6 6 7 7 7 6 6 6 6 6 7 8 10 11 11 10 11 13 14 14 13 13 13 15 18 19 18 18 19 18 17 17 17
1 1 1 1 1 2 3 2 2 3 3 3 3 3 3 4 4 5 5 4 4 5 5 3 2 1 2 1 1 1 0 1 1 0 1 2 1 1 1 0 2 3 3 4 5 5 4 3 4 6 7 7 7 6 6 6 7 7 7 7 7 7 7 7 9 11 13 13 11 11 12 13 14 14 14 13 11 13 17 20 19 18 19 19 18 19 20
1 1 1 1 1 3 3 2 2 3 4 4 4 4 4 5 5 5 5 5 6 6 4 1 2 1 1 1 2 1 2 1 2 2 1 0 2 2 1 1 3 4 4 4 4 3 3 3 5 7 7 7 7 6 6 6 6 6 7 8 10 10 10 11 12 12 13 13 13 13 13 14 14 15 15 13 11 13 17 18 16 15 16 16 15 16 18
1 1 1 2 2 2 2 1 1 2 4 4 3 3 4 4 4 5 6 6 5 4 4 3 1 1 2 1 1 0 1 0 2 2 1 2 2 3 2 3 6 6 4 4 3 3 4 5 6 6 7 7 6 6 6 6 6 7 8 11 12 12 12 12 12 12 12 14 15 15 14 14 15 16 17 17 16 15 15 14 11 12 14 14 13 14 16
1 1 2 2 2 1 1 1 2 3 4 3 3 3 3 3 4 6 7 6 4 4 3 3 2 1 1 1 2 1 1 1 1 1 1 2 2 3 5 5 6 5 4 3 2 3 4 4 5 6 7 7 7 6 6 6 6 7 10 12 12 12 12 12 12 12 12 13 15 16 15 13 13 15 17 17 16 14 12 11 11 12 15 17 18 19 19
Wind_Direction
358 357 357 357 356 355 355 355 357 359 359 358 353 338 301 226 281 279 341 340 166 151 166 188 174 244 228 239 257 249 263 277 280 287 285 281 271 258 260 274 270 237 202 145 190 240 242 175 196 198 204 217 217 212 192 167 152 151 168 188 177 164 124 131 268 289 285 289 303 303 311 105 122 191 164 149 168 161 153 172 183 169 160 127 115 203 262
359 357 355 354 353 351 351 351 350 354 357 354 351 345 291 292 277 278 333 305 198 173 185 191 190 211 233 251 253 259 273 270 272 278 274 269 275 277 268 284 300 259 175 150 209 232 229 296 260 227 235 238 211 202 188 172 161 165 184 181 176 199 178 125 117 2 346 324 349 351 331 102 142 200 163 160 162 138 125 130 129 161 198 161 148 205 250
359 358 354 351 351 349 348 348 347 347 349 348 349 348 280 298 263 238 292 272 218 188 132 136 191 198 231 255 258 267 271 258 252 253 256 253 252 265 261 248 306 319 324 133 274 275 186 235 315 324 270 269 242 248 201 171 168 182 182 168 164 183 178 142 143 145 158 189 200 211 226 212 347 21 67 134 151 139 135 123 123 183 218 154 154 190 210
355 358 354 349 350 351 350 351 349 344 343 345 343 323 283 318 296 277 315 115 170 275 5 10 202 183 214 257 261 253 250 270 260 251 253 253 246 249 251 245 251 313 323 15 312 298 220 194 328 343 288 282 264 306 312 132 137 184 175 160 143 140 153 156 153 160 179 186 206 220 179 107 38 9 23 360 174 141 120 110 148 183 166 163 207 176 147
351 354 354 350 348 349 351 353 352 347 347 346 338 312 247 302 308 310 349 63 176 251 247 227 215 196 220 264 300 280 283 307 290 263 256 258 260 254 246 251 196 164 188 181 279 292 290 355 36 200 257 278 287 314 327 54 36 22 169 157 127 109 154 176 144 151 193 187 197 198 122 109 157 105 29 359 347 122 121 142 182 155 136 207 237 162 152
349 349 351 350 346 346 350 354 354 353 353 348 341 323 237 289 308 270 324 302 199 221 237 235 244 252 255 279 313 313 305 303 295 280 274 267 265 258 359 356 49 170 188 174 151 270 296 358 352 247 277 296 321 340 340 38 26 23 110 128 112 118 152 179 115 87 54 7 249 162 116 108 133 94 55 14 334 166 144 166 188 148 144 207 195 168 169
351 349 349 349 347 345 348 355 358 359 355 343 332 318 276 306 305 261 217 229 265 275 283 288 271 260 257 265 265 269 284 284 271 263 296 295 278 213 63 357 345 311 189 127 138 198 177 40 304 268 320 314 336 19 2 351 11 36 72 56 94 106 100 166 118 87 42 4 320 127 111 103 62 43 34 28 331 219 156 151 178 140 138 168 160 161 177
352 351 350 351 351 346 347 355 2 3 359 350 329 295 308 317 297 287 257 249 258 255 259 261 247 242 236 238 253 250 258 279 290 272 258 285 309 7 35 340 329 333 22 77 126 195 170 153 230 238 10 340 342 77 57 305 347 14 56 10 36 84 90 225 106 77 14 349 337 29 99 104 78 30 14 27 25 347 90 117 137 103 93 120 129 126 22
352 352 352 352 352 348 346 354 3 7 8 3 343 316 334 311 279 272 278 291 285 249 221 196 185 203 219 220 257 274 255 287 319 305 247 231 267 19 12 327 322 341 21 53 270 243 203 188 220 225 237 264 228 93 124 156 360 356 20 5 21 81 105 328 80 79 314 322 334 350 74 81 63 28 9 16 29 360 311 242 192 134 119 117 119 131 167
351 352 352 351 352 349 347 352 360 6 12 13 357 321 335 324 291 272 262 284 310 334 18 141 180 219 233 249 303 306 293 308 317 306 288 232 195 37 3 330 338 357 356 2 295 267 241 234 249 229 213 232 70 63 106 140 119 30 34 40 36 113 129 130 97 107 279 303 314 324 48 58 11 321 349 354 351 311 300 295 275 142 132 136 157 176 163
349 350 351 349 349 349 350 354 358 3 10 12 1 321 328 333 313 299 296 278 324 18 24 21 14 344 321 319 322 309 298 303 291 263 287 294 306 350 343 336 20 291 265 279 297 279 247 241 241 122 92 56 57 71 72 75 79 102 151 88 69 111 120 130 113 112 228 281 315 9 58 110 246 246 207 190 231 323 353 329 316 90 119 125 125 133 140
348 351 349 348 348 349 352 355 357 1 2 360 352 329 328 333 319 303 334 323 327 10 6 340 333 316 311 319 322 306 291 288 268 247 255 282 302 316 312 324 58 250 269 304 315 302 270 52 69 68 46 31 35 50 47 38 35 42 101 123 123 111 106 113 94 105 161 280 21 71 209 230 256 284 245 178 166 130 77 37 353 354 62 115 119 129 143
350 351 349 347 347 348 351 353 355 357 355 351 346 334 333 336 323 288 329 315 291 331 330 307 299 301 313 319 315 305 297 282 258 247 244 258 283 289 277 216 197 242 309 332 342 42 85 59 66 51 354 356 5 17 24 18 17 23 17 31 126 128 122 113 82 99 134 118 102 154 225 260 332 331 309 129 123 73 66 42 352 341 344 135 129 134 142
350 352 351 348 347 347 349 350 349 349 351 347 340 334 337 340 316 288 324 305 283 296 293 290 303 317 322 319 315 313 310 299 280 265 263 269 279 276 255 211 207 255 314 6 35 68 91 67 59 45 346 5 19 353 349 356 14 28 12 350 70 122 130 115 81 87 135 128 141 198 307 333 341 306 260 146 134 165 138 137 315 329 316 150 133 132 136
349 351 351 347 346 347 348 347 344 344 346 343 336 335 340 342 318 300 291 290 306 301 260 296 332 328 320 316 318 315 309 320 354 341 288 266 265 265 246 208 194 315 31 77 70 58 98 126 105 94 349 49 145 279 329 340 345 14 20 358 22 80 130 140 125 110 109 105 86 37 27 294 248 230 239 127 111 130 136 145 232 316 299 161 142 138 140
349 350 350 348 347 346 346 344 342 341 342 339 336 335 339 348 337 313 286 286 302 279 283 346 327 313 307 301 299 297 296 321 340 319 289 265 254 260 262 212 169 142 59 69 76 61 81 128 147 144 178 197 172 194 312 355 332 341 1 24 39 48 64 103 106 107 118 114 121 157 189 245 240 218 212 107 122 122 99 116 221 236 204 160 144 142 147
347 348 349 348 346 344 344 344 342 341 341 338 336 334 337 354 352 329 300 268 270 263 303 340 321 299 311 302 299 303 299 306 318 308 294 282 263 261 268 112 112 90 67 66 76 70 78 107 113 109 187 220 150 152 220 112 99 332 337 17 37 38 26 59 100 126 142 123 128 203 214 254 260 171 139 168 174 113 104 157 236 192 167 166 152 148 151
345 347 348 348 346 344 346 348 345 342 341 338 335 333 335 356 2 350 321 281 301 278 259 273 276 276 274 267 289 306 300 306 323 317 297 286 274 281 261 149 87 51 60 75 99 93 81 93 123 124 184 264 148 140 175 146 146 182 167 58 38 28 21 60 112 130 134 130 135 258 258 257 245 163 163 186 175 82 122 206 230 173 162 168 159 153 154
345 347 348 347 344 342 345 350 347 343 341 340 338 335 336 351 9 9 2 308 309 289 271 273 264 251 243 237 251 261 275 291 294 299 304 306 312 313 311 128 96 63 68 61 97 117 97 61 176 131 117 303 292 139 143 149 167 180 129 111 105 107 52 53 116 135 137 133 126 23 278 255 197 146 172 204 166 130 201 221 202 165 160 157 155 155 153
344 344 345 344 341 339 344 347 346 342 340 341 339 335 334 337 3 8 9 344 289 297 285 270 238 229 231 226 234 245 272 280 261 256 279 291 324 353 13 22 357 37 81 80 109 143 129 154 230 128 121 219 248 129 109 38 25 181 157 139 154 155 129 90 148 148 119 87 92 119 230 254 168 121 138 246 197 194 208 143 104 148 152 147 149 150 141
343 342 343 345 342 338 340 342 344 343 340 340 339 334 328 321 332 348 351 332 301 302 283 265 245 248 255 252 247 243 236 232 230 225 244 271 300 5 15 279 261 176 149 157 165 192 141 157 192 139 130 181 44 125 135 81 37 333 123 116 118 111 120 169 206 171 127 136 171 188 217 272 282 168 178 229 227 189 172 129 114 137 147 146 143 137 135
340 338 340 344 342 338 337 338 342 342 336 337 339 330 317 314 323 338 340 315 253 244 267 275 279 277 273 268 261 250 243 243 243 238 236 285 281 242 230 270 265 207 178 121 96 349 58 131 153 141 130 121 87 116 125 119 144 302 7 73 102 261 167 168 165 116 124 150 188 223 279 302 300 220 190 266 340 92 130 125 124 140 151 149 138 128 131
335 334 336 338 338 337 335 335 337 336 330 331 333 324 313 312 319 332 333 307 254 256 266 272 281 282 277 281 287 274 253 246 244 237 222 211 270 269 231 253 283 236 168 119 132 181 139 131 142 131 122 133 117 104 81 82 145 199 37 71 244 246 174 136 117 122 116 80 65 53 21 359 360 31 57 37 35 55 84 92 98 117 124 130 135 136 137
331 331 333 334 334 334 333 332 333 330 325 323 322 316 310 307 312 326 331 309 296 303 282 278 295 285 286 311 318 309 279 251 245 236 219 203 217 310 273 254 302 348 322 294 175 143 114 115 117 98 97 124 120 105 92 87 135 133 95 34 302 280 110 89 96 135 146 72 48 48 41 23 20 36 51 54 46 40 58 88 105 106 103 111 124 131 133
328 328 329 330 330 330 329 328 328 326 323 321 317 313 307 301 305 321 328 307 324 333 324 319 282 276 319 327 320 323 328 307 265 225 206 201 203 215 263 306 317 317 306 310 60 85 77 81 92 101 122 152 125 104 119 158 157 131 108 90 303 332 63 78 86 101 102 103 104 92 73 52 36 44 60 69 67 61 64 83 100 99 100 108 116 123 128
328 328 327 325 325 326 325 324 325 324 322 320 316 309 301 295 293 289 274 275 279 233 286 302 277 303 334 336 327 346 356 343 239 191 194 207 218 226 252 302 313 319 27 35 73 86 93 98 84 87 107 114 102 114 139 90 80 81 85 43 289 314 7 90 113 97 85 99 127 127 97 55 29 41 66 81 97 95 87 88 98 102 106 111 111 113 123
326 326 324 323 322 323 323 323 326 328 327 322 314 305 298 293 290 278 253 234 210 294 300 272 279 312 326 321 320 341 353 22 141 144 170 206 228 235 244 268 297 2 28 36 47 61 76 72 57 70 117 30 69 90 102 63 66 70 47 348 339 360 16 113 120 120 139 168 172 159 125 87 23 70 95 98 110 110 104 102 105 109 116 119 112 108 115
323 323 322 321 320 321 322 324 328 332 331 323 315 311 305 298 294 280 251 228 212 277 304 252 280 309 314 308 322 338 355 52 77 76 82 77 65 107 174 56 56 37 37 54 49 41 58 60 46 36 359 39 64 57 33 45 59 60 14 339 349 349 238 188 132 143 212 177 147 133 113 112 127 116 103 104 108 106 107 111 116 118 123 123 119 118 118
320 321 322 323 322 321 321 323 328 333 333 327 322 320 322 340 345 311 234 212 208 225 299 290 284 301 307 303 312 325 351 38 52 54 49 41 44 49 45 45 53 60 76 82 78 68 57 53 79 19 346 33 103 65 18 45 52 20 327 324 315 270 246 220 152 135 90 111 124 119 106 111 122 114 105 104 104 102 100 100 108 116 121 123 124 126 127
319 319 321 324 323 321 320 321 325 331 332 329 328 328 339 26 16 19 175 187 196 210 308 327 286 288 300 295 294 302 323 4 31 38 39 40 38 31 37 57 60 54 60 60 69 95 74 12 14 346 332 11 102 103 80 96 96 305 321 331 325 313 296 276 166 132 109 103 104 96 97 105 106 92 81 78 97 107 105 98 103 109 110 114 122 124 126
318 318 320 322 321 319 318 317 320 327 326 319 327 14 63 8 14 35 135 176 187 202 307 289 266 299 309 290 265 282 299 328 11 15 24 42 30 18 41 63 51 43 65 63 50 90 92 26 8 350 338 12 75 103 123 109 105 344 347 348 337 343 12 36 69 95 109 107 93 79 83 95 97 87 78 72 91 103 105 100 102 105 104 104 111 117 124
318 318 320 321 318 315 313 312 315 316 306 283 262 262 266 263 273 64 108 154 182 203 323 312 313 337 320 292 291 297 301 348 36 19 13 17 8 11 30 46 47 52 81 87 66 42 79 99 61 1 340 3 60 89 80 77 114 137 16 6 356 10 38 64 78 89 105 108 99 92 92 90 86 102 125 132 111 103 104 102 100 102 102 100 100 106 115
318 318 318 317 314 311 308 307 305 299 289 275 270 278 286 273 246 214 158 146 197 233 190 81 348 309 284 285 301 311 332 16 6 16 15 349 351 28 22 15 29 35 44 67 76 353 51 107 86 11 341 1 63 91 72 40 85 109 20 1 13 39 54 64 67 66 60 52 76 115 139 140 114 109 122 123 110 104 105 106 105 104 103 103 101 104 111
318 318 317 314 311 307 302 301 295 282 268 263 269 292 9 17 256 206 187 180 254 298 273 92 52 283 295 329 313 310 16 79 31 31 18 323 338 66 26 347 17 38 28 41 62 19 14 42 47 8 337 353 44 80 92 79 128 119 22 357 30 61 68 60 43 36 34 37 58 94 118 119 108 102 104 104 104 107 108 109 111 111 109 110 115 118 118
319 318 316 312 308 303 298 292 271 238 229 243 237 190 38 5 336 214 197 197 172 24 311 302 66 282 314 356 319 299 5 73 94 90 51 339 354 59 80 24 26 28 4 34 64 41 4 10 58 29 338 351 39 88 159 175 177 170 125 83 60 69 76 64 40 33 53 86 97 102 108 112 111 109 109 110 112 115 111 107 111 116 114 115 121 123 123
320 319 317 312 304 294 281 252 212 196 199 227 251 292 311 320 329 216 202 205 202 154 234 319 13 227 216 300 288 293 5 58 339 303 18 12 357 26 77 71 48 355 7 47 55 26 347 13 79 31 344 357 128 227 197 165 161 167 159 158 159 94 96 106 103 85 80 100 114 118 119 120 119 119 121 123 122 119 115 112 114 118 119 124 127 122 120
324 322 320 315 299 256 247 212 185 183 241 279 291 304 311 336 71 113 182 203 217 224 195 123 266 239 196 203 260 287 28 33 319 348 4 360 336 355 51 71 79 327 20 27 23 12 356 24 68 62 330 253 239 253 220 162 160 175 168 166 167 118 107 113 113 103 96 101 113 118 118 119 124 126 125 124 128 129 125 124 126 129 130 132 132 127 126
331 331 335 356 61 149 125 176 198 260 292 296 295 293 128 115 96 73 90 175 228 237 174 166 250 252 154 192 259 281 359 303 3 24 346 252 270 7 34 75 131 86 32 337 270 147 52 21 46 77 270 272 278 270 222 164 166 175 155 152 160 140 129 135 130 121 121 123 128 129 128 128 133 139 137 137 141 139 131 127 128 128 125 121 122 125 128
350 356 358 6 11 214 247 301 302 300 300 296 228 160 172 68 71 227 239 165 225 248 205 209 234 212 162 207 263 275 229 70 46 29 270 244 300 322 7 79 145 78 63 317 274 75 58 357 349 11 290 279 282 274 212 145 145 153 145 149 157 148 145 152 148 140 144 152 152 149 146 145 148 151 146 137 124 111 112 121 128 130 127 124 127 131 132
6 9 2 4 330 306 311 316 314 310 308 269 133 130 324 182 185 215 225 215 238 225 201 206 229 211 177 187 243 269 213 116 122 180 195 199 216 123 92 90 226 86 74 291 284 80 87 20 336 338 267 240 230 225 179 142 146 159 153 149 146 141 146 148 135 120 116 120 125 128 138 150 156 155 148 139 126 117 121 129 132 133 132 130 133 137 138
358 354 329 306 307 309 314 321 324 324 90 90 333 359 85 225 260 263 138 177 260 262 228 198 274 280 209 170 186 237 270 143 144 133 115 90 288 79 82 270 281 76 75 257 247 90 82 75 338 273 250 224 199 178 155 148 156 156 147 145 137 126 121 119 118 118 117 115 112 117 133 149 160 155 142 136 134 134 136 134 132 133 133 133 136 142 145
319 302 286 289 298 302 309 322 336 55 90 56 347 282 284 255 259 294 245 232 249 268 265 235 223 230 225 188 185 207 239 344 86 86 81 277 259 111 99 310 14 63 228 246 225 70 57 32 272 263 253 217 177 160 153 159 169 164 156 152 140 132 130 125 118 123 129 129 122 117 128 139 150 146 136 133 132 135 140 138 133 130 131 133 137 143 147
316 294 272 278 292 295 293 307 306 147 75 49 83 322 324 308 280 294 288 272 282 359 318 294 296 321 324 315 247 255 306 353 74 83 86 263 281 66 68 35 18 118 222 250 64 70 114 219 230 247 247 202 168 162 161 165 167 158 153 150 143 143 144 135 121 120 129 132 131 128 125 123 122 129 134 134 132 132 137 139 136 134 136 136 137 140 148
333 306 202 262 296 282 239 277 291 135 160 231 163 157 225 272 283 341 307 284 303 330 305 292 357 354 317 298 312 335 303 303 75 74 79 306 23 61 74 279 258 244 248 34 54 182 237 236 231 230 211 174 167 168 165 161 152 142 142 147 144 141 139 130 121 119 121 125 128 126 122 117 116 120 126 131 133 134 135 137 138 140 142 141 137 138 146
352 33 47 354 311 270 187 270 311 208 205 214 188 169 180 198 207 232 243 224 222 302 302 292 24 349 296 283 320 21 286 55 56 45 157 73 49 49 207 227 240 61 60 24 337 306 282 263 239 201 176 172 172 167 162 158 154 147 143 141 138 135 134 133 130 125 121 126 129 126 123 123 123 119 118 126 134 135 134 136 139 142 144 145 142 141 147
327 348 55 90 253 261 193 193 301 254 208 210 199 184 177 186 205 226 237 212 230 300 302 296 319 319 296 281 285 358 39 71 70 140 113 87 85 240 232 218 47 49 43 351 301 273 256 248 227 189 176 171 164 160 160 157 151 147 143 142 143 140 137 138 137 132 132 134 132 130 130 133 133 130 129 135 139 138 137 143 150 150 147 147 146 145 147
298 337 65 122 262 287 154 185 216 219 221 223 207 203 218 228 228 244 267 255 253 287 302 299 285 279 271 250 197 291 343 62 78 270 63 88 128 281 357 36 63 181 143 240 252 249 246 242 212 178 171 161 152 155 160 153 147 147 143 138 138 138 136 135 133 131 135 135 133 133 137 140 142 143 143 142 145 147 148 154 163 164 156 153 152 152 150
333 6 71 152 233 223 205 240 288 288 270 268 265 257 268 328 351 326 300 275 282 325 325 319 319 299 277 252 122 195 307 47 83 242 330 88 104 345 15 21 301 270 209 205 224 238 244 231 188 164 159 154 152 157 159 152 150 149 141 136 140 143 140 136 134 137 141 141 136 134 137 140 145 148 143 136 138 147 152 157 164 165 161 159 158 156 156
280 315 294 244 259 247 236 256 328 323 308 316 333 343 6 19 357 323 310 319 335 323 295 258 180 172 262 290 80 95 325 359 113 137 15 46 87 168 104 102 280 282 255 220 224 238 239 209 158 143 145 151 154 157 157 153 150 148 143 144 149 148 142 137 139 145 147 145 141 138 138 139 143 145 139 131 132 144 152 156 159 159 160 162 161 159 161
239 263 266 225 252 281 295 351 10 317 318 343 357 355 2 2 339 324 336 342 330 320 313 329 110 128 237 359 56 47 275 240 132 102 60 113 172 163 127 205 234 239 236 232 234 231 207 165 140 140 150 155 154 155 155 152 149 149 147 146 148 150 150 148 147 148 150 148 145 141 140 142 146 148 148 151 153 148 146 149 152 154 159 165 168 167 168
260 260 258 232 222 261 307 13 26 286 306 326 324 320 342 349 325 322 335 335 332 352 6 356 339 40 61 67 82 193 240 197 92 92 181 217 175 133 152 231 236 231 233 246 239 197 164 152 147 148 151 153 155 156 153 146 144 144 145 146 150 153 155 154 152 150 149 150 149 147 145 149 155 156 158 162 161 148 140 145 155 160 165 175 186 190 187
270 277 285 285 277 254 248 257 253 259 268 274 279 308 333 320 296 313 334 344 356 12 357 303 283 38 61 201 204 174 106 56 58 81 225 239 207 164 183 219 239 236 221 220 194 153 148 154 154 151 152 156 158 152 143 138 139 142 145 148 151 155 159 161 159 154 148 149 155 159 158 155 154 153 153 152 148 145 153 170 180 181 184 191 199 202 203
Height
786 784 781 779 776 775 772 771 769 767 765 763 762 760 759 758 756 749 748 750 748 751 755 755 755 753 748 745 743 742 740 740 739 738 736 732 724 720 716 713 711 708 708 712 716 714 706 699 698 696 694 692 688 685 684 687 691 695 701 704 702 704 712 719 719 714 708 703 700 700 700 701 704 705 707 712 712 710 715 721 724 730 737 744 747 748 748
787 784 782 779 777 775 773 771 770 768 766 764 763 762 760 759 755 751 750 749 748 751 753 752 753 752 747 746 744 741 739 739 739 739 737 730 724 720 715 712 709 705 706 710 710 708 705 700 695 696 695 689 684 683 683 685 690 692 696 698 698 705 713 718 723 723 717 713 711 709 705 702 703 705 704 705 706 706 709 716 721 728 735 733 735 747 754
787 784 782 779 777 775 773 771 769 768 767 765 764 763 762 759 755 751 750 749 749 751 750 749 751 750 749 748 745 742 740 736 735 735 731 725 722 719 713 708 707 706 707 709 708 705 705 703 698 696 696 689 682 683 683 683 685 685 687 689 692 703 711 714 723 730 729 727 724 719 714 708 706 709 707 703 705 706 709 717 722 728 737 733 728 741 754
787 784 782 780 777 775 773 771 769 768 766 765 764 763 762 760 756 752 750 750 751 751 751 751 750 748 749 748 744 742 741 735 728 726 724 719 715 714 710 706 706 709 709 710 711 707 702 703 702 700 699 691 683 682 682 681 682 681 681 685 691 701 708 709 714 719 720 720 718 716 715 714 712 713 711 709 710 707 708 717 721 724 733 736 733 740 750
787 784 782 780 777 775 773 771 770 767 766 765 764 762 761 760 758 755 753 752 752 752 751 751 750 748 749 748 743 741 741 737 729 723 718 714 711 709 707 705 706 710 712 713 715 711 703 701 702 702 701 694 686 684 682 680 681 681 681 685 690 699 707 709 710 714 714 713 714 713 714 717 717 715 713 712 712 711 708 711 717 721 727 734 739 743 747
786 784 782 780 777 775 773 771 769 767 766 765 764 762 761 759 758 758 757 755 752 751 750 749 749 748 747 746 743 741 741 739 734 726 717 712 712 710 707 706 707 708 709 709 712 711 705 701 702 702 701 697 690 684 682 683 684 684 685 688 688 694 707 712 714 719 720 718 718 715 714 721 723 721 720 715 712 710 705 708 716 716 715 722 734 742 742
786 784 782 780 778 776 773 771 769 767 766 764 764 763 761 760 759 757 756 756 752 749 748 747 748 748 746 745 743 741 741 737 732 728 721 716 712 708 708 710 709 706 703 702 706 707 705 704 704 702 700 699 695 691 687 687 688 687 687 691 692 696 709 715 715 721 724 724 725 717 711 718 724 726 727 723 720 714 706 712 722 715 710 720 733 741 742
786 784 782 780 778 776 774 772 770 768 766 764 764 763 762 762 761 757 756 755 752 750 749 747 748 747 745 745 741 738 738 733 728 726 724 721 714 708 711 713 709 706 703 702 703 704 703 704 704 702 700 699 697 698 697 694 692 689 688 692 693 697 712 716 711 720 727 725 726 720 710 714 721 725 728 725 724 723 715 717 721 718 722 732 736 743 746
786 784 782 780 778 776 774 772 770 768 766 765 764 763 762 762 760 758 758 754 748 747 746 744 745 745 743 742 738 735 733 731 728 725 720 720 717 714 715 715 709 707 705 703 703 703 701 702 702 702 702 700 697 698 700 698 695 692 692 694 691 694 713 717 710 720 729 726 727 723 711 712 717 721 729 731 728 729 726 722 717 714 726 741 743 745 747
786 784 782 780 778 777 775 773 771 769 768 766 766 764 762 761 757 756 757 753 746 744 744 742 742 741 739 738 735 734 732 729 731 727 718 714 716 715 715 714 710 708 706 704 704 703 701 701 701 701 700 700 698 698 700 700 698 696 696 698 697 697 707 713 712 722 731 729 728 721 712 716 722 725 735 739 735 734 732 728 721 715 723 736 738 737 740
786 784 783 781 779 777 775 773 772 770 769 768 767 765 763 762 759 755 755 753 746 744 745 743 742 741 739 737 735 734 733 731 731 729 721 715 714 714 714 713 711 709 706 706 705 703 702 700 699 700 699 699 700 701 702 701 701 703 701 699 703 702 703 711 718 725 734 733 727 722 721 725 731 735 740 740 737 737 735 732 728 722 721 725 726 730 737
786 784 783 781 779 777 775 774 772 771 770 768 767 766 763 762 760 756 755 754 749 746 747 744 743 743 740 738 736 735 733 730 728 726 723 719 715 713 713 713 712 709 706 706 704 702 701 700 700 700 700 701 701 700 701 700 700 705 705 701 701 702 705 717 724 727 735 734 727 729 734 733 734 738 738 736 736 736 735 735 734 730 725 722 724 732 739
786 784 783 781 779 777 775 774 772 771 770 768 767 765 763 762 761 757 757 756 752 749 749 746 744 743 741 739 737 734 730 727 724 723 722 720 717 714 713 712 712 708 706 707 705 702 704 705 704 704 702 702 700 698 700 702 700 702 704 702 700 699 704 717 727 731 733 732 730 734 738 738 739 739 734 732 734 734 733 734 735 734 730 725 727 735 738
786 784 783 781 779 778 776 774 773 771 770 768 767 765 763 762 761 758 757 756 752 749 749 747 744 742 742 740 736 733 729 724 721 720 719 717 716 713 710 709 708 706 706 707 705 704 708 709 708 709 709 706 705 704 704 706 704 702 705 706 702 699 702 710 722 732 733 731 733 736 735 736 738 736 731 730 732 734 735 736 736 735 733 729 730 736 740
786 784 783 781 779 778 776 774 773 771 770 768 766 764 763 761 761 759 757 756 754 749 746 746 745 744 743 740 736 735 731 725 721 721 718 715 713 710 706 706 706 705 705 707 707 707 709 710 709 712 713 711 711 711 710 709 707 704 707 709 704 699 699 701 712 729 735 732 735 739 737 732 729 729 730 730 732 735 737 738 738 737 735 730 730 736 742
786 784 783 781 779 778 776 774 773 771 769 768 765 763 762 761 760 759 756 756 755 750 744 743 745 745 744 740 737 735 731 726 724 723 720 716 711 707 704 703 704 705 706 709 713 712 709 710 711 712 715 715 713 713 713 712 710 707 707 707 704 703 705 703 710 727 733 728 730 736 734 727 724 727 731 732 733 733 734 738 738 737 737 734 732 738 743
786 784 783 781 779 777 776 774 773 771 769 768 765 763 762 760 760 759 756 755 755 749 743 742 744 745 744 741 737 734 731 727 725 724 722 717 710 706 704 703 704 706 705 709 715 713 710 712 714 714 718 720 715 712 715 715 714 711 709 707 705 705 707 707 713 724 728 725 730 734 730 726 728 731 733 733 730 728 732 738 735 733 737 737 734 738 744
786 784 783 781 779 777 775 774 772 771 769 767 765 763 762 760 759 758 756 755 754 749 743 742 744 744 742 740 737 734 731 728 726 725 722 716 710 707 705 703 704 705 706 709 713 712 711 714 714 712 716 719 716 713 715 715 715 717 716 714 713 712 713 715 718 723 726 726 729 733 730 728 731 733 732 731 728 727 731 733 730 731 736 736 735 738 741
786 784 783 781 779 777 775 773 772 770 768 767 765 762 761 760 759 758 757 757 756 750 741 739 741 740 736 735 735 732 730 729 728 728 725 716 708 704 702 702 703 705 709 711 710 709 711 714 715 714 716 719 717 715 716 715 716 720 719 716 717 717 719 723 723 725 729 729 729 731 732 730 730 732 732 729 726 725 728 729 729 732 734 735 738 740 741
786 784 782 781 779 777 775 773 772 771 768 767 765 763 761 760 759 759 758 758 758 752 740 734 735 734 731 732 732 730 730 729 727 728 725 717 710 706 705 704 704 706 710 711 709 707 708 712 715 715 716 718 718 718 719 719 719 720 718 716 716 716 718 723 726 730 733 733 730 730 730 730 730 731 731 729 725 724 726 730 732 732 733 736 740 742 745
786 784 782 780 778 777 775 773 772 770 768 767 766 764 761 760 759 759 758 758 759 754 739 730 730 730 728 727 727 727 728 726 723 724 723 719 716 713 709 706 704 703 705 706 705 704 704 707 712 713 716 719 718 717 720 721 720 720 719 719 720 720 720 722 727 730 728 725 727 730 732 735 735 731 728 728 727 726 728 730 732 734 736 738 741 745 749
785 783 782 780 778 776 775 773 772 770 768 766 766 764 762 759 758 758 758 756 756 751 738 729 729 727 723 721 719 719 720 718 717 720 721 720 718 714 709 705 700 698 699 700 700 700 700 703 707 711 715 718 718 718 721 721 720 721 721 720 721 724 724 722 727 734 732 728 732 737 738 740 739 734 731 731 730 730 730 730 732 735 736 738 742 749 752
785 783 781 780 778 776 774 773 772 770 767 766 765 764 762 759 757 757 756 754 752 745 734 728 727 721 715 713 712 712 713 713 713 715 718 720 718 711 705 702 697 695 696 696 697 697 697 700 704 708 713 716 717 719 721 720 720 723 724 723 724 726 726 725 729 736 736 734 738 740 740 741 740 737 735 734 732 732 732 732 735 737 737 740 744 748 751
784 782 780 779 777 775 774 772 771 769 767 765 765 763 761 759 757 757 755 754 752 744 733 727 725 718 713 711 709 707 709 709 709 709 712 716 716 708 701 699 697 697 695 695 697 697 697 702 705 707 713 717 717 718 720 720 722 725 726 727 726 724 724 726 730 732 731 733 740 743 742 743 743 740 738 737 736 736 736 737 739 741 741 743 746 748 750
782 780 779 777 776 774 772 771 770 769 766 764 763 762 760 758 757 758 757 756 756 753 745 735 724 715 713 712 707 706 707 705 704 706 708 710 711 706 700 698 698 698 696 696 697 696 697 703 705 705 711 716 715 718 723 723 724 725 726 730 730 726 723 726 731 734 734 736 743 745 745 745 745 742 741 741 740 741 741 741 742 743 745 747 749 751 753
781 779 777 776 774 773 771 770 769 767 765 763 762 760 758 756 755 757 757 757 757 756 754 745 727 714 714 713 708 706 707 704 703 704 705 705 706 704 703 701 700 699 698 698 699 698 700 706 708 707 711 714 714 720 725 725 725 727 729 734 735 731 727 728 732 737 740 742 744 744 742 744 747 746 745 744 743 744 745 745 745 746 748 750 752 754 755
779 778 776 774 773 771 769 768 767 766 764 762 760 758 755 753 752 753 755 756 755 752 751 747 733 721 717 715 710 707 707 706 705 705 705 706 706 705 705 704 700 698 697 697 700 701 703 707 711 714 716 717 719 725 729 729 731 734 736 739 738 733 729 730 733 737 738 739 740 738 735 741 748 749 746 746 745 744 746 748 748 750 751 752 754 757 760
778 776 774 772 771 769 768 766 765 764 762 760 757 755 752 750 749 750 751 753 754 752 750 748 740 729 721 714 709 708 707 706 706 705 705 705 705 704 704 703 700 699 700 700 703 706 708 711 716 719 720 719 721 728 731 732 734 737 740 742 741 737 734 732 731 733 734 734 736 737 736 742 749 749 748 748 747 746 748 750 751 752 753 754 756 760 764
776 774 772 771 769 767 766 764 763 762 761 759 756 752 751 749 748 748 749 751 753 754 752 747 739 730 723 717 712 710 709 708 707 706 706 705 705 705 705 704 703 705 706 706 708 712 715 719 721 723 724 723 724 730 735 737 738 740 742 743 742 741 739 735 731 732 735 735 737 739 739 743 747 749 749 750 749 748 751 753 753 754 756 756 758 761 765
774 772 770 768 767 765 764 763 762 761 760 759 756 753 751 750 749 749 749 751 752 753 753 749 740 729 724 721 716 712 710 708 708 707 707 707 707 707 707 707 708 709 709 710 713 717 721 724 724 725 727 726 726 732 739 742 743 744 742 742 743 741 738 736 733 733 735 738 740 741 742 745 748 750 751 752 751 751 753 755 756 757 758 759 761 763 766
772 770 768 766 764 763 761 761 760 760 759 758 758 755 751 750 751 750 750 752 753 753 754 752 743 734 727 721 716 713 711 709 709 709 709 709 709 709 708 708 710 711 712 713 717 721 725 729 729 728 728 727 728 735 741 743 744 745 743 743 744 742 738 737 736 736 737 740 742 744 747 748 749 751 754 755 754 753 755 757 758 759 760 762 764 766 768
769 767 765 763 761 760 759 758 758 757 757 757 756 754 752 752 753 752 752 753 753 754 754 751 744 739 733 724 716 713 712 710 710 710 710 710 710 709 709 711 712 714 714 716 719 723 728 732 733 732 732 731 732 738 744 745 745 746 745 745 745 743 741 740 739 739 740 740 741 746 752 753 752 753 755 757 756 756 757 759 761 762 763 765 767 769 771
767 764 762 760 758 757 756 756 755 755 754 753 752 751 750 750 751 752 753 754 753 753 754 752 749 746 739 727 717 714 711 711 713 713 712 712 712 711 712 714 715 715 716 719 725 728 730 732 734 733 734 736 736 740 746 748 746 746 747 747 745 744 743 742 742 742 743 741 741 744 750 753 754 755 756 757 758 758 759 761 763 764 766 768 770 773 774
764 761 758 756 755 754 753 753 752 752 751 751 751 749 748 748 749 750 752 753 753 753 752 752 752 750 740 727 720 716 712 712 715 715 714 714 714 713 714 716 717 718 719 723 729 732 732 734 735 734 737 741 741 743 748 750 748 748 748 748 746 745 744 744 745 745 745 745 744 745 749 752 755 757 758 759 760 760 762 764 765 767 769 771 773 775 777
760 757 754 753 752 751 750 750 749 749 750 750 749 748 748 748 748 748 749 751 752 753 751 750 752 750 741 730 723 717 712 714 717 718 717 715 715 716 717 717 719 723 724 726 732 736 738 738 737 739 743 744 742 744 748 749 749 749 748 747 746 745 744 746 749 749 748 748 747 750 752 754 756 759 760 761 762 763 764 766 768 769 772 774 776 777 779
757 753 750 749 748 748 748 748 748 748 749 748 747 747 747 747 746 748 749 749 751 751 751 751 751 748 741 733 727 719 715 716 719 720 719 717 716 718 719 719 723 728 730 731 735 739 741 740 739 742 746 744 742 745 748 747 747 749 748 746 747 746 746 748 750 751 751 750 750 752 755 756 758 761 762 763 764 765 766 769 771 772 774 777 779 780 781
753 750 748 747 747 747 747 747 747 747 747 747 746 747 746 746 746 748 750 751 751 750 750 751 748 743 739 736 729 720 717 719 721 720 718 719 720 721 721 723 726 729 732 735 737 739 741 742 743 746 749 747 745 747 748 746 746 748 748 747 748 749 749 751 751 751 753 754 755 756 758 760 761 763 764 765 767 767 768 771 773 774 776 778 780 781 783
751 748 746 746 746 746 746 746 746 746 745 745 745 745 746 747 748 750 751 752 750 748 750 749 744 740 739 736 728 719 717 722 724 721 720 722 723 722 723 725 728 731 735 739 739 739 743 748 751 751 751 749 747 746 746 745 746 746 746 747 749 749 750 752 752 752 754 757 758 759 760 763 765 765 766 767 768 769 770 772 774 775 777 779 781 783 784
750 747 747 747 746 745 745 746 745 744 743 743 743 743 744 746 746 746 748 750 748 747 749 746 740 736 735 732 725 719 717 720 722 722 722 723 723 722 724 727 728 732 737 740 739 740 743 749 755 756 754 750 747 745 744 746 746 746 747 748 748 749 751 752 752 753 754 756 757 758 760 762 764 766 766 768 770 771 773 774 775 777 779 780 782 784 786
752 751 752 751 748 746 745 744 744 742 741 742 742 742 742 743 742 740 741 743 742 741 742 739 733 731 731 728 723 719 717 718 720 720 720 722 723 724 725 726 727 730 734 737 739 741 742 748 757 758 751 746 745 745 744 746 747 747 748 749 749 750 751 752 752 754 754 755 757 758 759 761 762 764 766 769 771 773 775 776 777 778 780 781 784 785 787
757 757 757 754 751 748 744 743 742 741 741 741 742 741 740 740 739 737 737 737 733 731 732 730 725 724 726 726 722 718 716 718 720 720 718 721 725 724 723 725 729 731 732 734 739 740 742 750 758 755 744 740 742 744 745 747 748 748 748 749 750 751 753 753 754 755 755 757 758 759 760 762 763 763 765 768 771 773 776 777 779 780 781 783 785 787 789
762 760 757 755 753 750 747 744 741 741 741 741 741 741 740 738 736 735 734 733 729 725 725 725 722 720 720 720 719 717 716 717 719 718 717 720 724 724 724 727 729 728 729 734 738 739 742 747 749 743 737 739 743 744 745 747 748 748 749 750 750 752 753 754 755 756 756 758 760 760 761 763 765 765 767 769 771 774 776 777 780 782 783 784 786 788 790
759 757 756 756 753 750 748 743 740 740 742 742 741 742 741 738 735 733 731 730 728 726 725 724 722 721 719 718 717 717 716 717 717 717 718 721 724 724 725 727 727 728 732 735 736 737 739 738 733 730 735 742 744 743 744 746 747 748 750 750 751 752 754 755 756 757 758 759 760 761 763 765 766 768 769 770 772 775 777 779 781 783 785 786 788 789 791
756 755 756 755 752 749 746 742 739 741 744 743 741 741 739 736 735 734 731 729 728 728 728 728 727 725 722 720 718 717 717 717 718 718 720 723 724 725 725 725 727 731 734 734 734 737 739 734 729 732 739 743 743 743 745 746 747 749 750 751 751 753 754 755 757 758 759 760 761 763 764 766 768 770 771 772 773 776 778 780 782 784 786 787 789 791 792
757 756 755 753 749 747 746 743 741 742 742 740 738 737 736 734 734 733 732 730 730 729 729 730 729 727 724 722 720 718 717 718 718 719 721 723 724 726 727 726 728 731 733 732 734 735 731 726 729 737 741 741 741 743 745 746 747 749 750 752 753 754 755 756 758 759 760 761 763 764 765 767 769 771 772 774 775 777 779 781 783 785 787 789 790 792 793
759 758 756 752 748 746 746 744 743 741 739 736 735 734 733 733 734 733 731 731 730 728 727 728 728 725 722 721 720 719 719 718 718 721 724 723 722 726 729 728 727 730 732 732 732 727 717 715 726 737 739 738 741 743 743 745 747 748 750 752 754 755 756 757 758 759 761 762 763 765 767 768 770 772 774 775 777 779 780 782 784 785 787 789 791 793 794
760 760 758 754 749 746 745 744 742 740 738 736 735 735 734 734 735 733 731 731 729 727 726 727 725 724 723 722 720 719 719 719 718 722 726 724 723 727 730 729 728 730 730 729 726 719 712 714 727 736 736 737 740 742 743 745 747 748 750 753 754 755 757 758 759 760 762 763 764 766 768 769 771 773 774 776 778 780 781 783 785 786 788 790 792 794 795
762 761 758 754 750 747 745 743 742 740 738 738 738 737 737 736 735 733 732 731 729 727 727 726 724 722 722 722 720 719 720 719 719 722 725 725 724 727 729 729 730 731 729 724 718 712 709 716 727 734 735 737 739 741 742 745 746 748 751 753 754 756 758 758 760 761 763 764 765 767 768 770 771 773 774 776 779 781 782 784 785 787 788 791 793 795 796
764 762 761 759 755 751 748 747 745 741 739 739 740 739 738 739 737 734 732 731 730 727 727 726 724 721 720 720 720 720 720 720 721 723 725 725 726 729 732 731 729 726 722 718 713 711 714 723 730 733 734 737 739 741 743 745 746 748 751 753 755 757 758 759 760 762 763 765 766 768 769 770 772 773 775 777 779 781 783 785 786 788 789 791 793 795 796
763 762 761 760 755 751 749 748 746 742 741 741 742 742 742 742 740 736 733 733 731 727 723 721 720 720 720 720 719 719 720 720 721 723 723 724 727 731 732 729 724 719 714 713 714 717 723 729 731 732 734 738 739 740 743 745 746 749 751 753 755 757 758 759 761 763 764 765 767 768 770 771 773 774 776 778 780 782 784 785 787 789 790 792 794 795 796
762 762 761 758 755 753 753 752 751 750 748 747 746 746 745 744 742 738 736 736 733 728 724 723 722 720 719 718 718 718 719 720 722 724 723 724 727 729 726 721 717 713 712 715 721 725 727 729 730 731 735 738 739 740 743 745 747 749 752 753 755 757 759 760 762 763 765 766 768 769 770 772 773 775 777 779 780 782 784 786 788 790 791 793 794 796 797
762 761 759 757 756 756 756 755 755 754 753 750 749 748 747 745 743 740 739 737 734 731 731 732 728 721 716 715 717 717 718 720 723 724 723 722 723 722 718 713 712 711 713 719 724 727 727 728 730 731 734 736 738 741 743 745 747 750 752 753 755 757 759 760 762 764 765 767 768 769 771 773 775 776 778 779 781 783 785 787 789 791 792 793 795 796 797